Details From EPKK - Balice
To EDDB - Berlin Schoenefeld
Flight Number -
Tags Generated
Created
Modified
Stats Distance 273 nm / 505 km
Max Altitude 0 ft / 0 m
Waypoints 3
Social Downloads 2
Likes 0
Share VATSIM

Download

Looking for another format? Having issues loading an existing format? Contact us
Advertisement - Login to hide

Notes

Generated

Route

EPKK DB440 EDDB

ID Type Via Altitude Latitude Longitude Leg Dist Tot Dist Heading (true) Name
O EPKK APT - 0 ft / 0 m 50.07540˚ 19.76809˚ - 0 nm - -
DB440 FIX - 0 ft / 0 m 52.32847˚ 13.69666˚ 265 nm 265 nm 303° / 298° -
O EDDB APT - 0 ft / 0 m 52.38012˚ 13.51714˚ 7 nm 272 nm 295° / 295° Berlin Schoenefeld

Altitude Profile

Advertisement - Login to hide

Weather


0- 5 10 15 20 25 30 35+ Temperature / ° C

Clouds and Precipitation
Forecast for 2017-10-21 00:00 UTC. Updated 25 minutes ago

Ground ~20,000 ft ~40,000 ft Winds

EPKK

Details ICAO EPKK (KRK)
Name BALICE
Region Poland
Timezone Europe/Warsaw (UTC+2.0)
Stats Elevation 791 ft / 241 m (AMSL)
Location 50.077821° 19.785503°
Runways 1
Magnetic Variation 5.183° E

METAR

EPKK 201930Z 09004KT 1100 R25/2000N BR OVC002 11/11 Q1017

Decode

TAF

TAF AMD EPKK 201916Z 2019/2118 08005KT 1000 BR OVC002 BECMG 2019/2021 0400 FG TEMPO 2021/2105 0100 FG OVC001 BECMG 2105/2108 25010KT 4000 BR BKN007 BECMG 2115/2118 1200 BR BKN004

Decode

Departure Runways

ID Width Length Bearing (true) Bearing (mag) Surface Threshold Offset Overrun Length
07 197 ft / 60 m 8,343 ft / 2,543 m 77.75° 72.57° Concrete 0 ft / 0 m 0 ft / 0 m
25 197 ft / 60 m 8,343 ft / 2,543 m 257.77° 252.59° Concrete 784 ft / 239 m 0 ft / 0 m

EDDB

Details ICAO EDDB (BER)
Name Berlin Schoenefeld
Region Germany - Civil
Timezone Europe/Berlin (UTC+2.0)
Stats Elevation 157 ft / 48 m (AMSL)
Location 52.378541° 13.520629°
Runways 2
Magnetic Variation 3.787° E

METAR

EDDB 201920Z 18006G18KT 100V220 9999 SHRA BKN044CB 13/13 Q1013

Decode

TAF

TAF TAF EDDB 201700Z 2018/2118 21006KT CAVOK TEMPO 2018/2020 SHRA BKN020CB PROB30 TEMPO 2018/2019 23015G30KT 4000 TSRA BECMG 2114/2117 14006KT

Decode

Destination Runways

ID Width Length Bearing (true) Bearing (mag) Surface Threshold Offset Overrun Length
07 148 ft / 45 m 9,817 ft / 2,992 m 68.75° 64.96° Asphalt 0 ft / 0 m 984 ft / 300 m
07L 148 ft / 45 m 8,867 ft / 2,703 m 68.77° 64.98° Concrete 0 ft / 0 m 525 ft / 160 m
25 148 ft / 45 m 9,817 ft / 2,992 m 248.78° 244.99° Asphalt 0 ft / 0 m 984 ft / 300 m
25R 148 ft / 45 m 8,867 ft / 2,703 m 248.80° 245.01° Concrete 0 ft / 0 m 984 ft / 300 m

Approach Navaids

Runway Type Ident Frequency Range Bearing (true) Bearing (mag) Slope Elevation
07 Localiser ISSE 110.70 MHz 18 nm / 33 km 68.79° 65.00° - 157 ft / 48 m (AMSL)
07 Glidescope ISSE 110.70 MHz 10 nm / 19 km 68.77° 64.98° 3.00° 157 ft / 48 m (AMSL)
25 Localiser ISSW 109.90 MHz 18 nm / 33 km 248.75° 244.96° - 157 ft / 48 m (AMSL)
25 Glidescope ISSW 109.90 MHz 10 nm / 19 km 248.77° 244.98° 3.00° 157 ft / 48 m (AMSL)

Popular Alternatives